Location: Kitchener
(43.4500°N, 80.5000°W)
Time: 12:36:30
(UTC-04:00)

Daily predictions for brighter satellites

Satellite Brightness Start Highest point End
(mag) Time Altitude Azimuth Time Altitude Azimuth Time Altitude Azimuth
Cosmos 2227 Rocket 2.2 20:22:07 10° NNW 20:27:49 78° ENE 20:33:28 10° SSE
CZ-2D R/B 3.7 20:25:27 10° SE 20:29:08 43° ENE 20:32:51 10° N
Resurs 01 Rocket 2.1 20:26:16 10° S 20:30:40 68° WSW 20:35:07 10° NNW
FengYun 1-2 T 4.3 20:26:54 10° SSE 20:32:32 85° ENE 20:38:10 10° NNW
OAO 2 Rocket 4.4 20:35:03 10° SW 20:39:24 30° S 20:43:48 10° ESE
Meteor 1-29 3.7 20:36:50 10° N 20:40:14 60° WNW 20:43:40 10° SSW
Cosmos 2297 Rocket 2.2 20:37:14 10° NNW 20:42:55 75° ENE 20:48:34 10° SSE
Cosmos 2082 3.8 20:38:03 10° NNW 20:43:42 85° WSW 20:49:19 10° SSE
Meteor 1-5 Rocket 4.3 20:42:25 10° SSW 20:47:46 80° W 20:53:18 10° N
ALOS 2.3 20:44:27 10° SSE 20:49:07 86° ENE 20:53:49 10° NNW
Cosmos 1346 Rocket 3.3 20:45:51 10° NNW 20:49:46 62° W 20:53:43 10° S
Cosmos 1939 Rocket 4.2 20:49:04 11° ESE 20:52:10 24° ENE 20:55:32 10° NNE
USA 186 1.4 20:53:03 10° SSE 20:56:05 72° ENE 20:58:56 10° N
OTV 4 3.0 20:54:55 10° SW 20:56:22 13° SSW 20:57:48 10° S
Cosmos 1515 3.9 20:54:48 10° N 20:58:34 50° ENE 21:02:17 10° SSE
Cosmos 1461 4.4 20:58:51 10° NW 21:02:29 32° WSW 21:06:01 10° S
SL-24 R/B - RUBIN 2 4.3 20:58:35 10° SSW 21:04:26 73° ESE 21:10:57 10° NE
Cosmos 1825 Rocket 4.5 21:03:18 10° NNE 21:07:13 30° ENE 21:09:41 18° ESE
Cosmos 2173 Rocket 4.5 21:01:52 10° SSE 21:07:42 40° E 21:13:32 10° NNE
Cosmos 1605 Rocket 4.2 21:06:52 10° SSW 21:13:11 76° W 21:19:28 10° N
Cosmos 1743 3.5 21:13:07 16° SSE 21:15:39 33° E 21:19:12 10° NNE
RESURS DK-1 2.5 21:13:00 10° NNW 21:17:06 58° ENE 21:19:38 22° SE
Tiangong 1 1.1 21:14:25 10° W 21:17:30 63° SSW 21:18:49 30° ESE
BREEZE-M DEB (TANK) 4.3 21:00:17 10° SW 21:17:55 60° SSE 21:22:27 13° ENE
Cosmos 1697 Rocket 2.6 21:13:51 10° SSW 21:19:26 66° ESE 21:25:02 10° NNE
Cosmos 1066 Rocket 4.2 21:14:16 10° N 21:19:57 72° E 21:25:44 10° SSE
H-2A R/B 2.8 21:20:46 23° ESE 21:22:25 31° ENE 21:26:07 10° N
Cosmos 2100 Rocket 4.1 21:16:46 10° S 21:22:54 57° E 21:28:58 10° NNE
Iridium 4 Rocket 3.3 21:18:04 10° N 21:23:09 86° W 21:27:43 10° S
Cosmos 1626 Rocket 4.1 21:20:12 10° NNW 21:24:32 58° W 21:28:48 10° S
BREEZE-M DEB (TANK) 4.5 21:21:47 10° WSW 21:26:13 85° SSE 21:43:53 10° ENE
Cosmos 2298 Rocket 4.2 21:21:31 10° NNW 21:26:51 76° WSW 21:31:50 12° SSE
Envisat 3.2 21:23:26 19° SE 21:26:58 55° ENE 21:31:56 10° N
YAOGAN 11 4.1 21:24:12 14° SSE 21:28:03 81° ENE 21:32:31 10° NNW
Cosmos 1937 Rocket 3.5 21:23:00 10° NNW 21:28:18 75° ENE 21:32:04 20° SSE
SL-16 R/B 3.7 21:31:23 16° E 21:31:23 16° E 21:33:44 10° ENE
Cosmos 2084 3.9 21:26:20 10° NW 21:30:19 54° WSW 21:33:09 19° SSE
Cosmos 2061 Rocket 4.0 21:26:51 10° S 21:33:02 62° E 21:39:12 10° NNE
ARGOS 4.3 21:34:52 22° E 21:36:36 26° ENE 21:40:58 10° N
Cosmos 1758 Rocket 4.1 21:32:46 10° N 21:36:50 37° ENE 21:37:54 32° ESE
Cosmos 990 Rocket 4.0 21:33:54 10° NNW 21:39:10 69° ENE 21:42:00 27° SE
Lacrosse 5 2.0 21:37:18 10° NW 21:42:20 70° SW 21:44:53 29° SSE
deb Chang Zheng 4 3.9 21:38:35 10° NNE 21:42:52 45° E 21:44:26 32° SSE
Cosmos 1980 Rocket 2.2 21:37:23 10° S 21:42:57 62° ESE 21:48:35 10° NNE
Cosmos 1842 3.9 21:42:17 10° N 21:45:54 35° ENE 21:46:02 35° E
H-2A R/B 3.7 21:46:51 16° ENE 21:47:24 16° ENE 21:50:21 10° NNE
MetOp-B 4.4 21:46:49 32° SE 21:48:56 49° ENE 21:54:06 10° N
SPOT 5 3.0 21:49:22 35° SE 21:51:15 57° ENE 21:55:56 10° N
Cosmos 1459 Rocket 3.9 21:45:59 10° S 21:52:02 89° E 21:58:12 10° N
ERS-1 Rocket 3.2 21:48:21 17° S 21:52:16 68° WSW 21:57:17 10° NNW
Cosmos 1725 Rocket 4.3 21:53:16 30° SE 21:55:48 46° E 22:01:43 10° NNE
Lacrosse 5 rocket 3.7 21:54:29 10° W 21:55:54 12° WSW 21:57:18 10° SW
BREEZE-M TANK 3.0 21:47:19 10° WNW 21:56:55 62° SSW 21:58:04 42° SSE
Cosmos 1666 3.1 22:00:57 44° ENE 22:00:57 44° ENE 22:04:01 10° NNE
Cosmos 2058 Rocket 3.1 22:03:45 53° ESE 22:04:15 57° E 22:08:41 10° NNE
Cosmos 2098 Rocket 4.0 22:00:54 23° SSE 22:05:07 62° E 22:10:43 10° NNE
Cosmos 1763 Rocket 3.3 22:00:20 10° SSW 22:05:26 82° ESE 22:10:32 10° NNE
SPOT 1/Viking Rocket 3.9 22:05:15 41° ESE 22:06:18 47° ENE 22:11:17 10° N
Cosmos 2263 Rocket 3.2 22:03:15 10° N 22:08:05 29° NE 22:09:09 27° ENE
Cosmos 1606 Rocket 3.5 22:06:33 29° SSW 22:08:45 82° W 22:13:13 10° N
Cosmos 1125 Rocket 3.6 22:09:44 10° NNW 22:14:53 59° ENE 22:15:42 52° ESE
Meteor 1-15 Rocket 4.3 22:13:43 42° SSE 22:15:30 61° E 22:21:17 10° NNE
Terra 3.4 22:15:54 22° ENE 22:15:54 22° ENE 22:19:10 10° NNE
YAOGAN 6 2.7 22:16:13 72° NNE 22:16:13 72° NNE 22:19:37 10° N
Cosmos 2322 Rocket 2.5 22:16:55 44° E 22:16:55 44° E 22:21:46 10° NE
Cosmos 1340 3.6 22:15:57 10° NNW 22:19:36 45° W 22:20:20 39° SW
Cosmos 2233 Rocket 4.3 22:19:10 43° ESE 22:19:40 44° E 22:25:31 10° NNE
USA 215 3.9 22:18:44 27° E 22:21:53 46° NNE 22:28:04 10° NW
BREEZE-M DEB (TANK) 4.2 22:00:03 10° WNW 22:23:05 75° NNE 22:25:51 38° E
Meteor 2-9 Rocket 4.0 22:26:58 44° S 22:28:49 88° E 22:34:14 10° N
Cosmos 841 Rocket 3.7 22:23:41 10° SSW 22:28:55 72° WNW 22:34:08 10° NNE
Cosmos 2360 4.3 22:25:01 10° SSW 22:30:44 79° WNW 22:36:31 10° NNE
Cosmos 1726 Rocket 4.2 22:30:18 35° SW 22:31:51 54° WNW 22:36:11 10° N
MetOp-A 4.4 22:33:48 44° SSW 22:35:21 64° WSW 22:40:42 10° NNW
Cosmos 405 Rocket 4.1 22:36:32 10° N 22:38:40 31° N 22:38:40 31° N
Cosmos 540 Rocket 4.2 22:42:33 41° NE 22:42:33 41° NE 22:46:04 10° NNE
ASTEX 1 4.0 22:38:58 10° N 22:43:50 54° W 22:45:35 36° SW
Cosmos 1375 Rocket 4.4 22:50:12 38° SSW 22:52:56 82° ESE 22:59:34 10° NE
BREEZE-M DEB (TANK) 4.1 22:52:16 10° WNW 22:53:27 26° W 22:53:27 26° W
Cosmos 372 Rocket 4.0 22:50:01 10° NNW 22:54:42 73° N 22:54:42 73° N
H-2A R/B 3.9 22:57:54 21° WSW 22:58:29 22° W 23:01:45 10° NW
SL-08 RB Rocket 4.3 23:05:54 55° WNW 23:05:54 55° WNW 23:09:49 10° NNW
Cosmos 2228 4.2 23:07:20 40° WNW 23:07:20 40° WNW 23:10:54 10° N
SL-16 R/B 2.4 23:13:11 66° W 23:13:33 69° WNW 23:19:14 10° NNE
ARGOS 3.8 23:16:23 46° WSW 23:16:34 46° W 23:21:44 10° NNW
Cosmos 1844 Rocket 4.2 23:15:23 10° N 23:19:29 25° NE 23:19:29 25° NE
CZ-4B R/B 4.1 23:15:58 10° N 23:20:03 49° NW 23:20:03 49° NW
Lacrosse 5 4.4 23:23:04 10° W 23:24:05 11° WSW 23:24:05 11° WSW
H-2A R/B 2.7 23:27:30 49° NW 23:27:30 49° NW 23:31:13 10° NNW
Cosmos 2360 Rocket 3.6 23:30:08 29° NE 23:30:08 29° NE 23:32:53 10° NNE
Cosmos 1980 Rocket 4.4 23:22:56 10° WSW 23:27:25 23° NW 23:31:56 10° N
Cosmos 2263 Rocket 3.3 23:46:54 10° NW 23:50:51 38° WNW 23:50:51 38° WNW
Terra 3.5 23:54:47 30° NW 23:54:47 30° NW 23:57:32 10° NNW
